Arlod, France

1:40 AM CEST on August 18, 2017 (GMT +0200)
Arlod

Weather History for 06700 - May, 2013

Change the Weather History Date:

Sunday, May 12, 2013

  Actual Average Record
Temperature  
Mean Temperature 50 °F -  
Max Temperature 55 °F 67 °F - ()
Min Temperature 44 °F 47 °F - ()
Degree Days  
Heating Degree Days 14    
Moisture  
Dew Point 40 °F    
Average Humidity 64    
Maximum Humidity 100    
Minimum Humidity 33    
Precipitation  
Precipitation 0.01 in 0.10 in - ()
Sea Level Pressure  
Sea Level Pressure 30.12 in    
Wind  
Wind Speed 4 mph ()    
Max Wind Speed 15 mph    
Max Gust Speed -    
Visibility 6.2 miles    
Events Rain    
T = Trace of Precipitation, MM = Missing Value Source: Averaged Metar Reports

Daily Weather History Graph

Daily Weather History Graph

Search for Another Location

Airport or City:

Trip Planner

Search our weather history database for the weather conditions in past years. The results will help you decide how hot, cold, wet, or windy it might be!

Date:

Astronomy

May. 12, 2013 Rise Set
Actual Time 6:06 AM CEST 8:58 PM CEST
Civil Twilight 5:31 AM CEST 9:33 PM CEST
Nautical Twilight 4:46 AM CEST 10:17 PM CEST
Astronomical Twilight 3:54 AM CEST 11:10 PM CEST
Moon 7:46 AM CEST (5/12) 11:14 PM CEST (5/12)
Length of Visible Light 16h 01m
Length of Day
14h 51m
Waxing Crescent, 5% of the Moon is Illuminated
May 12
Waxing Crescent
May 18
First Quarter
May 25
Full
May 31
Last Quarter
Jun 8
New

Hourly Weather History & Observations

Time (CEST) Temp. Windchill Dew Point Humidity Pressure Visibility Wind Dir Wind Speed Gust Speed Precip Events Conditions
12:00 AM 50 °F - 42 °F 64% 30.12 in - North 1.2 mph - -  
12:20 AM 48.2 °F - 42.8 °F 82% 30.09 in 6.2 mi Calm Calm - N/A   Scattered Clouds
12:50 AM 48.2 °F - 42.8 °F 82% 30.09 in 6.2 mi SSW 2.3 mph - N/A   Scattered Clouds
1:00 AM 49 °F - 42 °F 70% 30.12 in - SW 2.3 mph - -  
1:20 AM 46.4 °F - 42.8 °F 87% 30.09 in 6.2 mi Variable 2.3 mph - N/A   Scattered Clouds
1:50 AM 46.4 °F - 42.8 °F 87% 30.09 in 6.2 mi Variable 1.2 mph - N/A   Scattered Clouds
2:00 AM 47 °F - 42 °F 77% 30.12 in 37 mi NE 2.3 mph - -   Scattered Clouds
2:20 AM 46.4 °F - 42.8 °F 87% 30.09 in 6.2 mi Variable 1.2 mph - N/A   Scattered Clouds
2:50 AM 48.2 °F - 42.8 °F 82% 30.09 in 6.2 mi Variable 2.3 mph - N/A   Scattered Clouds
3:00 AM 49 °F - 42 °F 71% 30.11 in - WNW 3.5 mph - -  
3:50 AM 48.2 °F - 44.6 °F 87% 30.09 in 6.2 mi Variable 1.2 mph - N/A Rain Light Rain Showers
4:00 AM 49 °F - 45 °F 82% 30.11 in - NNW 1.2 mph - -  
4:20 AM 50.0 °F - 44.6 °F 82% 30.09 in 6.2 mi WSW 4.6 mph - N/A   Mostly Cloudy
4:50 AM 48.2 °F - 44.6 °F 87% 30.09 in 6.2 mi Variable 2.3 mph - N/A Rain Light Rain Showers
5:20 AM 48.2 °F - 46.4 °F 93% 30.09 in 6.2 mi SSW 3.5 mph - N/A Rain Light Rain Showers
5:50 AM 48.2 °F - 46.4 °F 93% 30.09 in 6.2 mi SSW 2.3 mph - N/A   Mostly Cloudy
6:00 AM 49 °F - 45 °F 83% 30.11 in - SSW 3.5 mph - -  
6:20 AM 48.2 °F - 46.4 °F 93% 30.06 in 6.2 mi SW 3.5 mph - N/A   Mostly Cloudy
6:50 AM 46.4 °F - 44.6 °F 93% 30.06 in 6.2 mi NNE 1.2 mph - N/A   Mostly Cloudy
7:00 AM 47 °F - 45 °F 92% 30.11 in - NW 1.2 mph - -  
7:20 AM 46.4 °F - 46.4 °F 100% 30.09 in 6.2 mi West 2.3 mph - N/A   Mostly Cloudy
7:50 AM 48.2 °F - 46.4 °F 93% 30.09 in 6.2 mi NNW 1.2 mph - N/A   Mostly Cloudy
8:00 AM 50 °F - 38 °F 54% 30.12 in 31 mi North 2.3 mph - -   Mostly Cloudy
8:20 AM 50.0 °F - 39.2 °F 66% 30.09 in 6.2 mi West 2.3 mph - N/A   Mostly Cloudy
8:50 AM 51.8 °F - 41.0 °F 67% 30.09 in 6.2 mi SSW 8.1 mph - N/A   Mostly Cloudy
9:00 AM 52 °F - 38 °F 49% 30.12 in - SSW 6.9 mph - -  
9:20 AM 51.8 °F - 41.0 °F 67% 30.09 in 6.2 mi SSW 5.8 mph - N/A   Mostly Cloudy
9:50 AM 53.6 °F - 39.2 °F 58% 30.09 in 6.2 mi SSW 10.4 mph - N/A   Mostly Cloudy
10:00 AM 52 °F - 37 °F 46% 30.12 in - SSW 9.2 mph - -  
10:20 AM 51.8 °F - 39.2 °F 62% 30.12 in 6.2 mi SW 15.0 mph - N/A Rain Light Rain Showers
10:50 AM 51.8 °F - 39.2 °F 62% 30.12 in 6.2 mi SW 15.0 mph - N/A   Mostly Cloudy
11:20 AM 51.8 °F - 37.4 °F 58% 30.12 in 6.2 mi SW 12.7 mph - N/A   Mostly Cloudy
11:50 AM 51.8 °F - 39.2 °F 62% 30.12 in 6.2 mi SW 9.2 mph - N/A   Mostly Cloudy
12:00 PM 53 °F - 37 °F 44% 30.14 in - SW 10.4 mph - -  
12:20 PM 53.6 °F - 37.4 °F 54% 30.12 in 6.2 mi SW 9.2 mph - N/A   Mostly Cloudy
12:50 PM 53.6 °F - 39.2 °F 58% 30.12 in 6.2 mi WSW 9.2 mph - N/A   Mostly Cloudy
1:00 PM 53 °F - 37 °F 43% 30.14 in - SW 11.5 mph - -  
1:20 PM 53.6 °F - 39.2 °F 58% 30.12 in 6.2 mi SW 10.4 mph - N/A   Mostly Cloudy
1:50 PM 53.6 °F - 41.0 °F 62% 30.15 in 6.2 mi SW 9.2 mph - N/A   Mostly Cloudy
2:00 PM 53 °F - 38 °F 44% 30.15 in 31 mi SW 6.9 mph - -   Mostly Cloudy
2:20 PM 53.6 °F - 39.2 °F 58% 30.15 in 6.2 mi West 5.8 mph - N/A   Mostly Cloudy
2:50 PM 53.6 °F - 39.2 °F 58% 30.15 in 6.2 mi West 4.6 mph - N/A   Mostly Cloudy
3:00 PM 54 °F - 38 °F 42% 30.15 in - WNW 5.8 mph - -  
3:20 PM 55.4 °F - 37.4 °F 51% 30.15 in 6.2 mi WSW 4.6 mph - N/A   Mostly Cloudy
3:50 PM 55.4 °F - 37.4 °F 51% 30.15 in 6.2 mi WNW 5.8 mph - N/A   Scattered Clouds
4:00 PM 54 °F - 35 °F 37% 30.15 in - West 4.6 mph - -  
4:20 PM 55.4 °F - 37.4 °F 51% 30.15 in 6.2 mi Variable 1.2 mph - N/A Rain Light Rain Showers
4:50 PM 55.4 °F - 35.6 °F 47% 30.15 in 6.2 mi Variable 3.5 mph - N/A   Scattered Clouds
5:20 PM 55.4 °F - 37.4 °F 51% 30.12 in 6.2 mi ENE 4.6 mph - N/A   Mostly Cloudy
5:50 PM 57.2 °F - 39.2 °F 51% 30.12 in 6.2 mi Variable 3.5 mph - N/A   Mostly Cloudy
6:00 PM 54 °F - 36 °F 39% 30.14 in - SE 3.5 mph - -  
6:20 PM 55.4 °F - 37.4 °F 51% 30.12 in 6.2 mi East 4.6 mph - N/A   Scattered Clouds
6:50 PM 55.4 °F - 35.6 °F 47% 30.12 in 6.2 mi Variable 2.3 mph - N/A   Scattered Clouds
7:00 PM 55 °F - 34 °F 33% 30.14 in - North 3.5 mph - -  
7:20 PM 55.4 °F - 35.6 °F 47% 30.12 in 6.2 mi Variable 3.5 mph - N/A   Scattered Clouds
7:50 PM 55.4 °F - 37.4 °F 51% 30.15 in 6.2 mi North 5.8 mph - N/A   Scattered Clouds
8:00 PM 54 °F - 34 °F 35% 30.16 in 31 mi North 5.8 mph - -   Partly Cloudy
8:20 PM 53.6 °F - 37.4 °F 54% 30.15 in 6.2 mi NNW 3.5 mph - N/A   Scattered Clouds
8:50 PM 51.8 °F - 37.4 °F 58% 30.15 in 6.2 mi Variable 2.3 mph - N/A   Partly Cloudy
9:00 PM 51 °F - 36 °F 46% 30.18 in - NNW 3.5 mph - -  
9:20 PM 50.0 °F - 37.4 °F 62% 30.15 in 6.2 mi Variable 1.2 mph - N/A   Partly Cloudy
9:50 PM 50.0 °F - 37.4 °F 62% 30.18 in 6.2 mi Variable 3.5 mph - N/A   Partly Cloudy
10:00 PM 50 °F - 36 °F 49% 30.20 in - NNW 3.5 mph - -  
10:20 PM 50.0 °F - 37.4 °F 62% 30.18 in 6.2 mi North 4.6 mph - N/A   Partly Cloudy
10:50 PM 46.4 °F 45.2 °F 37.4 °F 71% 30.18 in 6.2 mi NE 3.5 mph - N/A   Partly Cloudy
11:20 PM 46.4 °F - 39.2 °F 76% 30.18 in 6.2 mi Variable 2.3 mph - N/A   Partly Cloudy
11:50 PM 44.6 °F - 39.2 °F 81% 30.18 in - Variable 1.2 mph - N/A   Clear